Garden City, KS

12:20 AM CDT on March 24, 2017 (GMT -0500)
Garden City Regional

Weather History for KGCK - January, 2013

Change the Weather History Date:

Thursday, January 3, 2013

  Actual Average Record
Temperature  
Mean Temperature 17 °F 31 °F  
Max Temperature 28 °F 44 °F 76 °F (2006)
Min Temperature 5 °F 18 °F -10 °F (1979)
Degree Days  
Heating Degree Days 48 34  
Month to date heating degree days 151 102  
Since 1 July heating degree days 2121 2225  
Cooling Degree Days 0 0  
Month to date cooling degree days 0 0  
Year to date cooling degree days 0 0  
Moisture  
Dew Point 10 °F    
Average Humidity 78    
Maximum Humidity 92    
Minimum Humidity 63    
Precipitation  
Precipitation 0.00 in 0.01 in 0.50 in (1990)
Month to date precipitation T 0.03  
Year to date precipitation T 0.03  
Sea Level Pressure  
Sea Level Pressure 30.47 in    
Wind  
Wind Speed 8 mph (West)    
Max Wind Speed 14 mph    
Max Gust Speed 15 mph    
Visibility 10 miles    
Events      
T = Trace of Precipitation, MM = Missing Value Source: NWS Daily Summary

Daily Weather History Graph

Daily Weather History Graph

Search for Another Location

Airport or City:

Trip Planner

Search our weather history database for the weather conditions in past years. The results will help you decide how hot, cold, wet, or windy it might be!

Date:

Astronomy

Jan. 03, 2013 Rise Set
Actual Time 7:59 AM CST 5:36 PM CST
Civil Twilight 7:29 AM CST 6:05 PM CST
Nautical Twilight 6:56 AM CST 6:38 PM CST
Astronomical Twilight 6:25 AM CST 7:10 PM CST
Moon No Moon Rise 11:18 AM CST (1/3)
Length of Visible Light 10h 35m
Length of Day
9h 37m
Waning Gibbous, 65% of the Moon is Illuminated
Jan 3
Waning Gibbous
Jan 4
Last Quarter
Jan 11
New
Jan 18
First Quarter
Jan 26
Full

Hourly Weather History & Observations

Time (CST) Temp. Windchill Dew Point Humidity Pressure Visibility Wind Dir Wind Speed Gust Speed Precip Events Conditions
12:54 AM 10.0 °F -3.7 °F 5.0 °F 80% 30.42 in 10.0 mi NW 10.4 mph - N/A   Clear
1:54 AM 9.0 °F -6.6 °F 3.9 °F 80% 30.43 in 10.0 mi NW 12.7 mph - N/A   Partly Cloudy
2:54 AM 9.0 °F -5.9 °F 3.9 °F 80% 30.45 in 10.0 mi WNW 11.5 mph - N/A   Partly Cloudy
3:54 AM 12.0 °F -2.7 °F 6.1 °F 77% 30.45 in 10.0 mi NW 12.7 mph - N/A   Mostly Cloudy
4:54 AM 10.0 °F -4.5 °F 6.1 °F 84% 30.46 in 10.0 mi NW 11.5 mph - N/A   Clear
5:54 AM 10.0 °F -5.2 °F 6.1 °F 84% 30.47 in 10.0 mi NW 12.7 mph - N/A   Clear
6:54 AM 7.0 °F -6.6 °F 3.9 °F 87% 30.51 in 10.0 mi NW 9.2 mph - N/A   Clear
7:54 AM 7.0 °F -7.5 °F 3.9 °F 87% 30.53 in 10.0 mi NW 10.4 mph - N/A   Clear
8:54 AM 8.1 °F -6.2 °F 5.0 °F 87% 30.54 in 10.0 mi NW 10.4 mph - N/A   Clear
9:54 AM 10.9 °F 2.9 °F 7.0 °F 84% 30.55 in 10.0 mi WNW 4.6 mph - N/A   Clear
10:54 AM 17.1 °F 7.6 °F 10.9 °F 77% 30.56 in 10.0 mi NW 6.9 mph - N/A   Scattered Clouds
11:54 AM 21.0 °F 12.4 °F 14.0 °F 74% 30.53 in 10.0 mi West 6.9 mph - N/A   Clear
12:54 PM 25.0 °F 17.1 °F 16.0 °F 69% 30.49 in 10.0 mi West 6.9 mph - N/A   Clear
1:54 PM 26.1 °F 20.5 °F 18.0 °F 71% 30.45 in 10.0 mi West 4.6 mph - N/A   Clear
2:54 PM 27.0 °F 21.6 °F 17.1 °F 66% 30.44 in 10.0 mi WNW 4.6 mph - N/A   Clear
3:54 PM 27.0 °F 23.0 °F 16.0 °F 63% 30.43 in 10.0 mi WSW 3.5 mph - N/A   Clear
4:54 PM 24.1 °F 16.0 °F 17.1 °F 75% 30.45 in 10.0 mi SSW 6.9 mph - N/A   Clear
5:54 PM 19.0 °F 8.2 °F 12.9 °F 77% 30.46 in 10.0 mi SW 9.2 mph - N/A   Clear
6:54 PM 16.0 °F 5.3 °F 12.0 °F 84% 30.46 in 10.0 mi SSW 8.1 mph - N/A   Clear
7:54 PM 16.0 °F 7.4 °F 12.9 °F 88% 30.45 in 10.0 mi SSW 5.8 mph - N/A   Clear
8:54 PM 14.0 °F 3.9 °F 10.9 °F 88% 30.45 in 10.0 mi SSW 6.9 mph - N/A   Clear
9:54 PM 12.0 °F 2.7 °F 10.0 °F 92% 30.43 in 10.0 mi SW 5.8 mph - N/A   Clear
10:54 PM 10.0 °F -2.9 °F 7.0 °F 87% 30.43 in 10.0 mi WSW 9.2 mph - N/A   Clear
11:54 PM 9.0 °F -3.2 °F 6.1 °F 88% 30.43 in 10.0 mi WSW 8.1 mph - N/A   Clear